Погода в Чите

Погода в Чите : погода сейчас, прогноз погоды и архив. Всё, что Вы хотите узнать о погоде в Чите!

Поиск расширенной информации на нашем сайте:

Другие новости

Новости СМИ2

Главная страница сайта

Новости сайта

02.10.2013

Напоминаем, что на нашем новом сайте вы можете получить высокодетализированные прогнозы погоды по пунктам России, СНГ и мира (включающие важные для авиации метеовеличины, такие как направление и скорость ветра, видимость, явления погоды, количество и форма облачности, нижняя и верхняя граница облачности), а также ознакомиться с разнообразными материалами по авиационной метеорологии и подборкой полезных ссылок на эту тему.

Сайт Метеоцентр.Азия посвящён разработке технологий оптимизации авиаметеорологического обслуживания, включая проектирование и перспективное создание нескольких автоматизированных авиаметеорологических систем:
- система выпуска высокодетальных прогностических карт явлений погоды для нижнего воздушного пространства по России и ближнему зарубежью;
- система верификации прогнозов TAF (выпускаемых синоптиками официальных АМСГ РФ и ближнего зарубежья) и AUTOTAF (выпускаемых сайтом Метеоцентр.Азия) - выявление ошибок, онлайн-сопоставление с фактической погодой METAR, автоматическое внесение коррективов в прогнозы при резком отклонении фактической погоды от прогноза, подсчёт оправдываемости прогнозов по элементам и в целом;
- система обработки, анализа и отображения авиаметеорологической информации для применения провайдерами метеорологической информации.

Рекомендуем: Artandground адаптер решетка вентиляция цена rfk-vent.ru.

Погода в Чите - сегодня

Время (UTC), дата Ветер
(°,м/с) 
Видим.   Явления Облачность Т
(°С)
Тd
(°С)
f(%) Тe
(°С)
Pmin
(гПа)
dP
(гПа)
Po
(мм)
O2
(г/м3)
Тmin Tmax R s Состояние
почвы
06 17.02.17 270 (З) 20000 м  дым  ясно 
-14.4 -23.7 45 -14  1030  -1.8  707  302           
09 17.02.17 310 (СЗ) 20000 м    ясно 
-14 -25 39 -16  1028.9  -0.8  707  302           
12 17.02.17 080 (В) 50000 м    ясно 
-21.6 -27.1 61 -25  1031.6  0.1  707  311    -12.2       
15 17.02.17 080 (В) 50000 м    ясно 
-25.3 -28.8 72 -29  1032.6  0.1  707  316           
18 17.02.17 тихо ()   8000 м  дымка  ясно 
-28.2 -31.3 75 -28  1032.3  -1.4  706  319           
21 17.02.17 060 (СВ) 8000 м  дымка  ясно 
-31.1 -34.5 72 -32  1031.1  -2.1  704  322           
00 18.02.17 010 (С) 4000 м  дымка  3/0 верхняя 
[Ci fib]
-31.3 -34.8 71 -32  1028.4  -2.5  702  321  -32.1      равномерный
сухой снег
100% 
03 18.02.17 340 (С) 10 км  дым  10/0 верхняя 
[Cs]
-24 -27.8 71 -24  1022.6  -2.8  700  311           
06 18.02.17 340 (С) 20000 м  дым  10/0 средняя 
[Ac As]
-17.3 -23.4 59 -20  1015.9  -4  697  301           
09 18.02.17 150 (ЮВ) 20000 м  дым  10/0 средняя 
[Ac As]
-17.1 -23.3 59 -21  1015.1  -0.6  697  301           
12 18.02.17 150 (ЮВ) 10 км  слаб. снег  10/0 средняя 
[Ac As]
-18.5 -22.5 71 -23  1017.3  1.6  698  303    -15.7  0.0     
15 18.02.17 010 (С) 10 км  слаб. снег  10/0 средняя 
[Ac As]
-19.5 -22.2 79 -20  1018.1  0.5  698  304           
18 18.02.17 090 (В) 10 км  слаб. снег  10/0 средняя 
[Ac As]
-22.2 -24.7 80 -25  1020.8  1.5  699  308           
21 18.02.17 130 (ЮВ) 10 км  слаб. снег  10/0 средняя, верхняя 
[Ac As|Ci fib]
-22.9 -25.4 80 -23  1022.9  1.5  701  310           
00 19.02.17 030 (СВ) 20000 м  дым{снег}  8/0 средняя, верхняя 
[Ac trans|Ci fib]
-25.3 -28.1 77 -26  1027.2  3.1  703  314  -25.3    0.5  равномерный
сухой снег
100% 
03 19.02.17 180 (Ю) 20000 м  дым  ясно 
-14.8 -19.7 66 -15  1025.4  1.8  704  301  -25.4         
06 19.02.17 320 (СЗ) 20000 м    ясно 
-8.4 -20.8 36 -10  1023.1  -0.2  704  294           
09 19.02.17 340 (С) 20000 м    ясно 
-7.2 -21.8 30 -7  1023.5  0.7  705  293           
12 19.02.17 150 (ЮВ) 50000 м    ясно 
-15.1 -21.1 60 -17  1028.1  1.8  706  303    -6.8       
15 19.02.17 160 (Ю) 50000 м    ясно 
-13.6 -20.4 56 -16  1028.3  0.6  707  301           
18 19.02.17 180 (Ю) 50000 м    ясно 
-16 -21.8 61 -16  1029.8  0.7  707  304           
21 19.02.17 120 (ЮВ) 50000 м    ясно 
-21.3 -24.1 78 -22  1032.4  0.6  707  311           
00 20.02.17 160 (Ю) 20000 м    ясно 
-22.3 -24.8 80 -23  1033.6  0.6  708  312  -22.4      равномерный
сухой снег
100% 
03 20.02.17 300 (СЗ) 20000 м  дым  ясно 
-13.2 -20.1 56 -13  1029.6  -0.7  708  301           
06 20.02.17 210 (ЮЗ) 20000 м  дым  8/0 верхняя 
[Ci sp]
-6.5 -17.9 40 -6  1025.2  -2  706  293           
Время (UTC), дата Ветер
(°,м/с) 
Видим.   Явления Облачность Т
(°С)
Тd
(°С)
f(%) Тe
(°С)
Pmin
(гПа)
dP
(гПа)
Po
(мм)
O2
(г/м3)
Тmin Tmax R s Состояние
почвы

Для получения пояснительной информации подведите курсор к названию столбца.

ПОГОДА в Чите - архив

Всё, что Вы хотите узнать о погоде в Чите - удобно и подробно!

Выберите нужную дату (начиная с 1 января 2015* года) и нажмите кнопку "Найти".
Будут отображены архивные сводки погоды по пункту Чита, начиная с указанной даты.


Отображать данные в формате CSV (для использования в таблицах Excel)


Внимание! Наш архив погоды предназначен исключительно для личного некоммерческого использования в познавательных целях. Если Вам необходимы официальные справки о состоянии погоды (для производственных, юридических, коммерческих и т.п. целей), обращайтесь в органы Росгидромета.

*Примечание: данная дата относится к архиву по метеостанциям СССР (Россия, СНГ, Балтия).
Архив по метеостанциям Зарубежной Европы и Азии (кроме Китая) хранится 10 дней, по другим регионам земного шара (Китай, Африка, Америка, Австралия, Океания) - 1 день.

Чита - район местоположения метеостанции


Название, широта, долгота, высота метеостанции:
Чита (город) 52.1°ш. 113.3°д. 680 м над ур. моря [Российская Федерация]

Дополнительная информация

В oтличие oт бoльшинства пoгoдных сайтoв мы публикуем пoдрoбную метеoинфoрмацию в детальнoм прoфессиoнальнoм фoрмате.

Характеристики температуры и влажнoсти вoздуха измеряются на высoте 2 м в тени вдали oт зданий и деревьев.
Скoрoсть ветра измеряется на высoте 10 м (на урoвне рoста челoвека скoрoсть ветра ниже в 1.5-2 раза). Если метеoстанция нахoдится в гoрoде или в лесу, тo скoрoсть ветра занижена на 2-4 м/с пo сравнению с oткрытым местoм. Скoрoсть ветра над акватoриями крупных рек и oзёр, а также на вершинах хoлмoв на 2-5 м/с выше, чем в oбычных услoвиях.
Атмoсфернoе давление в разных тoчках местнoсти мoжет значительнo oтличаться oт давления на метеoстанции, в зависимoсти oт услoвий рельефа (при пoдъёме на 10 м давление пoнижается примернo на 1 мм рт.ст.).